Location: Bergnershof
(48.9468°N, 10.9431°E)
Time: 14:56:43
(UTC+00:00)

Cosmos 2333 Rocket - Pass Details

Date: 30 June 2021
Orbit: 841 x 861 km, 70.8° (Epoch: 28 July)

Event Time Altitude Azimuth Distance (km) Brightness Sun altitude
Rises 19:58:45 0° 234° (SW) 3,421 5.5 -5.1°
Reaches altitude 10° 20:01:23 10° 243° (WSW) 2,486 4.9 -5.4°
Maximum altitude 20:06:39 37° 310° (NW) 1,308 4.1 -6.0°
Drops below altitude 10° 20:11:55 10° 17° (NNE) 2,486 5.1 -6.6°
Sets 20:14:35 0° 26° (NNE) 3,422 5.7 -6.9°
